Temp
-4 -4 -4 -6 -6 -6 -5 -5 -6 -6 -5 -5 -6 -6 -6 -6 -5 -5 -5 -5 -5 -5 -5 -6 -6 -6 -7 -7 -7 -6 -6 -6 -6 -6 -6 -6 -6 -6 -6 -6 -6 -6 -6 -6
-4 -4 -5 -6 -6 -6 -6 -5 -5 -6 -6 -5 -6 -5 -6 -5 -6 -5 -5 -5 -6 -5 -5 -6 -6 -7 -6 -6 -7 -8 -7 -7 -7 -7 -7 -7 -6 -6 -6 -6 -7 -7 -6 -6
-4 -5 -7 -6 -6 -6 -6 -5 -5 -6 -6 -5 -5 -6 -6 -6 -6 -5 -5 -6 -6 -6 -5 -6 -6 -7 -5 -6 -6 -6 -8 -7 -7 -6 -6 -6 -6 -6 -7 -7 -7 -7 -7 -6
-5 -5 -7 -6 -6 -6 -6 -6 -5 -6 -6 -5 -6 -6 -5 -6 -6 -6 -6 -6 -7 -6 -5 -6 -6 -7 -7 -7 -6 -6 -6 -7 -6 -5 -6 -6 -6 -6 -7 -7 -7 -7 -8 -7
-5 -6 -7 -6 -6 -6 -6 -6 -6 -6 -6 -6 -5 -6 -6 -6 -5 -5 -4 -7 -7 -6 -5 -6 -7 -7 -7 -7 -6 -7 -7 -7 -7 -6 -5 -7 -5 -6 -7 -7 -6 -6 -8 -8
-5 -7 -7 -6 -6 -6 -6 -6 -6 -6 -6 -6 -5 -5 -6 -6 -6 -5 -5 -7 -7 -6 -5 -5 -6 -6 -6 -6 -6 -6 -6 -6 -7 -6 -6 -6 -6 -7 -7 -7 -7 -7 -7 -7
-6 -5 -6 -7 -6 -6 -7 -6 -6 -6 -5 -5 -5 -5 -5 -7 -6 -7 -7 -7 -7 -6 -5 -5 -6 -5 -5 -5 -5 -5 -6 -6 -6 -6 -6 -6 -6 -6 -6 -6 -7 -6 -6 -7
-6 -7 -6 -7 -6 -6 -6 -6 -6 -5 -5 -5 -6 -5 -5 -5 -6 -7 -6 -5 -6 -6 -6 -5 -5 -5 -5 -5 -5 -5 -6 -5 -5 -6 -6 -6 -6 -6 -6 -6 -6 -7 -7 -7
-7 -7 -6 -6 -7 -5 -6 -6 -6 -5 -5 -5 -5 -5 -5 -6 -7 -7 -6 -6 -6 -6 -6 -6 -6 -6 -6 -5 -5 -5 -5 -5 -5 -6 -6 -6 -6 -6 -6 -6 -6 -6 -6 -6
-7 -7 -6 -6 -6 -7 -5 -6 -6 -6 -5 -5 -5 -5 -5 -5 -6 -6 -7 -6 -6 -7 -6 -6 -6 -6 -6 -6 -5 -5 -5 -5 -6 -6 -6 -6 -6 -6 -6 -6 -6 -6 -6 -6
-6 -7 -6 -6 -6 -7 -7 -6 -6 -6 -5 -5 -4 -4 -4 -4 -6 -6 -5 -7 -7 -7 -6 -6 -6 -6 -6 -6 -6 -6 -6 -6 -6 -6 -6 -6 -6 -6 -6 -6 -6 -6 -6 -6
-8 -8 -7 -6 -6 -6 -7 -7 -6 -6 -6 -5 -5 -4 -5 -6 -6 -6 -6 -6 -7 -6 -6 -7 -7 -6 -6 -6 -6 -6 -6 -6 -6 -6 -6 -6 -6 -6 -6 -6 -6 -6 -6 -6
-9 -7 -8 -7 -6 -6 -7 -7 -7 -6 -6 -6 -5 -5 -6 -6 -6 -7 -7 -7 -7 -6 -6 -6 -7 -7 -7 -6 -6 -6 -6 -6 -6 -6 -6 -6 -6 -6 -6 -6 -6 -6 -6 -6
-7 -7 -8 -7 -7 -6 -6 -6 -7 -6 -6 -6 -5 -5 -5 -5 -5 -5 -6 -7 -7 -7 -6 -7 -7 -7 -7 -7 -7 -6 -6 -6 -6 -6 -6 -6 -6 -6 -6 -6 -6 -6 -6 -6
-8 -7 -8 -8 -7 -7 -6 -6 -7 -7 -6 -6 -5 -5 -6 -6 -5 -7 -7 -6 -7 -6 -6 -7 -7 -7 -7 -7 -6 -7 -7 -7 -7 -7 -6 -6 -6 -6 -6 -6 -6 -6 -6 -6
-8 -7 -7 -8 -8 -7 -7 -6 -6 -6 -7 -6 -6 -5 -5 -6 -7 -7 -6 -7 -6 -6 -6 -7 -7 -7 -7 -7 -7 -7 -7 -7 -7 -7 -7 -6 -6 -6 -6 -6 -6 -6 -6 -7
-9 -8 -8 -8 -8 -8 -8 -7 -7 -7 -7 -7 -7 -6 -6 -6 -6 -6 -7 -7 -6 -7 -6 -7 -8 -8 -7 -7 -7 -7 -7 -7 -7 -7 -7 -6 -6 -6 -6 -6 -6 -6 -7 -7
-10 -10 -10 -9 -9 -9 -5 -7 -7 -7 -7 -7 -7 -7 -7 -7 -7 -7 -7 -6 -7 -7 -7 -7 -8 -8 -8 -8 -8 -7 -7 -7 -7 -7 -6 -6 -6 -7 -6 -6 -6 -7 -7 -8
-10 -10 -10 -9 -9 -9 -7 -8 -7 -7 -7 -7 -7 -7 -7 -7 -7 -7 -7 -6 -7 -7 -7 -8 -8 -8 -8 -8 -8 -7 -7 -7 -7 -6 -6 -6 -7 -7 -6 -7 -7 -7 -8 -8
-11 -11 -10 -9 -9 -9 -8 -8 -7 -8 -7 -8 -8 -8 -7 -7 -7 -7 -7 -7 -8 -8 -8 -8 -8 -8 -8 -8 -8 -8 -8 -7 -7 -6 -6 -6 -7 -7 -7 -7 -7 -8 -8 -8
-11 -10 -10 -10 -10 -9 -8 -8 -8 -8 -7 -8 -8 -8 -8 -7 -7 -7 -7 -7 -8 -8 -8 -8 -8 -8 -8 -8 -8 -8 -8 -7 -7 -6 -6 -7 -7 -7 -7 -7 -8 -8 -9 -9
-11 -11 -10 -10 -10 -9 -9 -9 -8 -8 -8 -8 -8 -8 -8 -8 -8 -8 -7 -8 -9 -8 -8 -8 -8 -8 -8 -8 -8 -8 -8 -7 -7 -7 -7 -7 -7 -7 -7 -8 -8 -9 -9 -9
-11 -10 -10 -10 -9 -10 -10 -9 -9 -8 -9 -7 -8 -8 -8 -8 -8 -7 -9 -8 -8 -8 -8 -8 -9 -9 -9 -9 -8 -8 -8 -7 -7 -7 -7 -7 -7 -7 -8 -9 -9 -10 -10 -10
-10 -11 -10 -10 -9 -10 -9 -10 -9 -7 -8 -9 -7 -9 -7 -7 -9 -9 -8 -9 -8 -8 -8 -8 -9 -9 -9 -9 -9 -8 -8 -8 -8 -8 -7 -7 -8 -8 -8 -9 -10 -10 -10 -10
-11 -10 -10 -10 -9 -9 -8 -8 -10 -10 -8 -7 -8 -9 -6 -8 -8 -8 -8 -9 -8 -9 -8 -9 -9 -10 -9 -9 -9 -8 -8 -8 -8 -8 -8 -8 -8 -9 -9 -10 -10 -10 -10 -11
-11 -11 -9 -10 -10 -9 -10 -10 -10 -10 -10 -10 -10 -11 -9 -9 -8 -8 -8 -9 -9 -9 -9 -9 -9 -10 -9 -9 -9 -8 -9 -9 -9 -8 -8 -8 -9 -9 -10 -10 -11 -11 -11 -12
Height
5916 5917 5920 5923 5931 5925 5928 5926 5921 5931 5928 5926 5924 5925 5923 5923 5921 5916 5912 5909 5908 5907 5905 5905 5900 5898 5897 5898 5895 5895 5894 5889 5894 5891 5890 5891 5892 5892 5892 5891 5890 5889 5889 5886
5913 5915 5919 5924 5929 5927 5930 5933 5934 5930 5927 5925 5918 5919 5911 5914 5920 5917 5912 5911 5907 5905 5907 5905 5901 5896 5896 5895 5895 5892 5893 5892 5888 5889 5890 5890 5891 5892 5890 5890 5888 5888 5888 5885
5909 5915 5918 5922 5927 5929 5927 5930 5930 5923 5925 5923 5921 5922 5921 5921 5920 5918 5913 5908 5907 5905 5906 5904 5899 5893 5895 5888 5883 5887 5887 5890 5890 5889 5891 5889 5887 5887 5887 5887 5887 5886 5886 5885
5907 5912 5917 5920 5922 5927 5926 5928 5927 5923 5922 5923 5919 5917 5915 5918 5918 5915 5913 5910 5907 5906 5908 5905 5901 5892 5895 5887 5884 5881 5883 5887 5888 5886 5887 5885 5884 5883 5883 5884 5883 5883 5883 5884
5904 5907 5912 5917 5921 5923 5922 5925 5921 5921 5919 5918 5919 5914 5900 5904 5916 5914 5907 5909 5909 5906 5908 5907 5903 5892 5896 5894 5892 5889 5885 5886 5885 5883 5879 5878 5877 5880 5880 5880 5879 5879 5881 5884
5897 5904 5907 5912 5915 5917 5918 5920 5920 5920 5918 5914 5913 5912 5906 5904 5904 5908 5904 5902 5908 5906 5908 5909 5906 5901 5898 5897 5895 5892 5890 5889 5887 5884 5881 5880 5878 5880 5877 5875 5879 5878 5883 5884
5892 5896 5902 5907 5909 5912 5913 5916 5917 5917 5917 5914 5907 5908 5906 5892 5884 5903 5905 5907 5908 5906 5907 5908 5907 5905 5903 5900 5897 5894 5891 5890 5888 5888 5883 5884 5883 5882 5880 5882 5883 5881 5883 5883
5888 5892 5895 5899 5901 5906 5907 5911 5913 5914 5915 5912 5908 5908 5903 5898 5891 5905 5914 5909 5906 5902 5905 5905 5906 5906 5904 5902 5899 5895 5893 5892 5891 5888 5886 5884 5883 5883 5882 5881 5880 5879 5878 5878
5885 5889 5895 5894 5896 5899 5902 5906 5910 5910 5912 5910 5910 5904 5899 5895 5900 5909 5912 5907 5904 5900 5902 5903 5901 5901 5900 5898 5896 5894 5893 5892 5890 5889 5888 5885 5883 5882 5880 5878 5876 5875 5875 5874
5879 5886 5892 5895 5893 5893 5894 5902 5907 5907 5907 5906 5907 5903 5894 5891 5877 5899 5905 5905 5904 5900 5900 5899 5899 5898 5898 5896 5895 5893 5892 5891 5889 5888 5886 5885 5883 5881 5879 5876 5874 5872 5870 5868
5872 5879 5886 5890 5890 5890 5891 5892 5897 5902 5905 5905 5904 5900 5891 5889 5890 5897 5902 5901 5902 5899 5899 5898 5897 5896 5897 5894 5893 5891 5889 5889 5888 5887 5885 5884 5881 5878 5875 5873 5871 5869 5867 5865
5867 5872 5875 5882 5887 5887 5886 5889 5893 5894 5897 5898 5899 5902 5893 5892 5895 5894 5900 5896 5898 5897 5896 5894 5893 5892 5893 5892 5891 5890 5888 5887 5885 5884 5882 5880 5878 5876 5873 5870 5867 5865 5862 5860
5859 5861 5866 5873 5881 5882 5881 5883 5885 5892 5894 5894 5898 5895 5889 5887 5886 5889 5892 5894 5895 5892 5892 5890 5890 5890 5889 5889 5888 5887 5885 5884 5882 5880 5878 5877 5874 5872 5869 5867 5864 5861 5858 5855
5847 5852 5860 5865 5873 5879 5877 5877 5879 5885 5888 5891 5894 5897 5889 5880 5876 5876 5882 5884 5887 5886 5887 5887 5887 5887 5886 5886 5884 5883 5881 5880 5878 5877 5874 5872 5870 5867 5864 5861 5859 5856 5853 5849
5843 5846 5852 5858 5864 5869 5873 5876 5875 5874 5878 5883 5889 5893 5888 5885 5876 5869 5879 5882 5881 5881 5883 5884 5884 5883 5883 5882 5880 5878 5876 5875 5874 5872 5870 5868 5865 5862 5859 5856 5853 5850 5846 5843
5836 5840 5843 5847 5854 5859 5863 5868 5871 5873 5872 5873 5877 5879 5885 5876 5874 5872 5875 5877 5878 5878 5878 5879 5879 5880 5879 5877 5876 5874 5872 5870 5869 5867 5864 5862 5859 5856 5853 5850 5847 5844 5840 5836
5832 5835 5837 5840 5846 5850 5853 5858 5863 5865 5868 5870 5870 5874 5877 5878 5871 5868 5872 5875 5874 5873 5873 5875 5874 5875 5874 5873 5871 5870 5867 5865 5863 5861 5859 5857 5854 5851 5848 5845 5842 5838 5834 5830
5825 5828 5834 5836 5840 5841 5847 5852 5856 5857 5859 5862 5865 5869 5871 5873 5869 5862 5860 5866 5868 5869 5868 5869 5869 5869 5869 5868 5866 5864 5863 5860 5858 5856 5854 5851 5848 5845 5842 5839 5836 5832 5828 5824
5817 5823 5828 5832 5834 5838 5841 5845 5849 5852 5853 5854 5855 5859 5863 5868 5857 5847 5828 5856 5861 5863 5861 5861 5863 5863 5863 5862 5861 5859 5857 5855 5852 5850 5848 5845 5842 5839 5836 5833 5828 5824 5820 5816
5813 5818 5823 5826 5828 5834 5840 5843 5846 5846 5845 5847 5849 5850 5854 5859 5853 5839 5848 5856 5854 5855 5853 5855 5856 5857 5857 5857 5855 5854 5852 5850 5847 5845 5842 5839 5836 5833 5829 5825 5821 5818 5813 5809
5809 5811 5813 5818 5822 5827 5833 5838 5836 5839 5843 5841 5841 5843 5847 5845 5846 5845 5841 5846 5848 5849 5851 5849 5851 5851 5851 5852 5851 5848 5846 5844 5842 5839 5836 5832 5830 5827 5823 5819 5815 5812 5808 5803
5796 5802 5808 5812 5816 5821 5823 5828 5827 5822 5823 5826 5834 5836 5838 5836 5831 5830 5832 5841 5839 5843 5844 5844 5844 5845 5846 5846 5845 5842 5840 5838 5836 5833 5830 5827 5824 5820 5817 5813 5808 5804 5800 5795
5787 5788 5791 5794 5800 5803 5809 5810 5805 5804 5817 5818 5823 5825 5826 5825 5816 5793 5813 5833 5838 5839 5835 5837 5839 5840 5841 5840 5838 5836 5835 5833 5831 5828 5825 5821 5818 5814 5809 5805 5801 5797 5793 5788
5769 5773 5775 5784 5793 5791 5795 5799 5804 5810 5806 5812 5810 5811 5821 5815 5809 5818 5821 5828 5831 5832 5829 5831 5833 5834 5835 5834 5832 5831 5830 5828 5825 5822 5818 5814 5809 5805 5801 5797 5794 5789 5785 5779
5761 5754 5763 5768 5783 5780 5789 5785 5786 5797 5801 5802 5803 5805 5808 5773 5806 5808 5815 5822 5824 5824 5825 5825 5826 5826 5829 5829 5827 5825 5823 5820 5817 5814 5810 5805 5801 5797 5794 5790 5787 5782 5777 5772
5760 5756 5737 5759 5767 5776 5770 5768 5778 5788 5791 5794 5800 5805 5808 5803 5802 5807 5812 5814 5816 5817 5819 5819 5818 5820 5822 5822 5819 5818 5816 5812 5809 5805 5802 5798 5794 5790 5787 5783 5779 5774 5770 5764
Wind_Speed
15 15 10 10 7 19 8 15 20 4 15 10 3 9 13 12 11 12 9 12 12 15 21 28 25 19 12 7 5 5 5 8 10 13 8 5 7 8 6 8 11 14 11 11
21 16 10 7 12 11 12 7 9 16 15 6 16 18 24 20 11 11 11 11 14 18 20 26 21 23 16 17 6 6 6 8 10 11 11 11 12 11 11 11 14 16 12 10
24 15 14 15 13 20 17 9 17 23 7 15 21 22 23 14 13 15 13 13 15 20 23 21 20 22 23 30 16 5 6 13 7 8 8 14 16 14 13 14 16 19 16 5
27 19 20 23 17 17 15 10 21 15 19 15 26 25 29 8 10 5 6 11 15 19 21 18 21 23 19 21 14 14 13 6 10 8 13 19 22 14 12 14 16 19 8 9
27 26 23 24 18 21 20 15 21 20 22 20 14 31 30 9 15 7 6 6 13 18 18 18 20 13 14 17 16 18 25 19 16 10 10 17 18 17 13 15 18 21 6 9
29 23 26 25 24 25 21 19 22 21 20 20 24 25 28 29 10 18 7 6 11 13 13 16 18 15 17 16 17 18 18 18 18 22 21 24 17 15 14 12 9 4 4 9
30 28 21 26 24 27 24 19 19 20 18 21 33 33 34 52 13 9 12 6 8 8 5 7 11 13 8 10 12 16 17 17 19 19 21 19 17 16 14 10 7 6 9 12
28 27 30 26 28 24 23 23 22 23 19 29 33 32 37 26 20 5 15 15 9 13 4 3 5 9 11 12 12 13 14 14 15 18 19 20 21 20 17 15 12 13 16 18
25 24 19 23 23 26 23 25 19 25 24 27 29 33 34 21 20 8 14 19 16 14 5 4 6 7 12 14 16 15 15 14 14 15 17 19 19 20 21 20 20 20 20 19
27 23 19 19 27 25 29 19 19 21 21 24 22 29 38 41 7 5 3 12 13 12 10 9 10 11 13 16 16 16 16 16 16 16 18 20 21 21 23 22 21 20 22 25
32 27 23 18 31 26 21 27 28 23 23 21 20 31 38 33 27 36 12 6 11 11 14 13 15 15 13 17 19 18 17 17 17 18 19 21 22 24 25 25 24 23 24 26
27 30 30 23 23 26 24 24 23 27 24 22 20 23 31 34 31 24 10 3 14 17 16 12 14 16 18 18 20 19 19 20 21 22 23 24 24 26 27 27 26 26 26 30
24 29 31 27 25 28 26 26 26 23 22 22 17 26 35 35 42 13 10 19 19 19 19 13 14 17 20 20 20 22 22 21 21 23 23 23 24 27 27 27 26 27 28 32
36 31 26 30 24 22 27 27 23 27 25 21 21 23 34 42 41 30 13 15 20 23 20 15 15 16 18 22 24 25 23 23 23 24 25 25 24 28 27 26 27 28 31 32
29 34 29 26 26 24 23 26 27 27 29 30 26 23 19 25 27 13 20 30 25 23 21 16 14 17 19 21 20 22 23 22 23 24 25 23 26 30 29 26 28 29 31 32
29 32 34 29 25 28 25 24 27 27 26 34 36 32 22 25 28 33 33 33 24 22 20 16 19 20 20 22 23 25 25 24 25 25 25 26 29 32 29 28 30 31 32 33
23 28 29 32 21 25 28 30 25 25 24 22 25 29 33 25 35 39 33 31 30 29 26 20 20 21 22 24 25 27 28 26 27 26 27 29 30 30 28 29 31 32 33 33
22 21 17 23 21 25 30 22 23 27 25 25 25 20 23 21 30 42 48 36 34 32 28 18 20 24 25 26 27 26 25 26 28 28 28 29 29 28 28 30 30 33 33 34
28 21 21 20 19 22 26 22 18 22 27 27 27 26 27 21 38 51 10 18 27 24 21 20 23 26 27 28 26 23 25 25 26 27 27 27 27 28 29 31 31 33 34 36
23 21 23 27 19 20 18 15 20 23 25 21 23 25 24 27 42 49 34 30 28 23 24 25 26 27 29 27 25 24 25 27 29 30 29 27 27 29 30 31 33 34 34 35
21 26 28 26 28 24 20 18 20 22 25 19 21 22 24 35 38 38 34 29 27 23 23 26 25 27 32 23 25 23 27 28 28 29 27 26 28 31 32 33 34 35 35 36
34 32 30 28 25 24 23 21 25 22 31 30 22 22 26 38 44 48 43 33 25 23 22 22 25 17 16 20 22 23 25 25 26 26 25 27 29 32 33 34 35 35 36 38
41 44 46 42 42 34 34 38 34 41 32 37 32 34 32 39 46 14 17 22 21 23 21 25 28 18 19 18 20 21 22 25 25 26 26 28 30 32 35 35 35 36 37 37
23 41 49 40 44 42 45 40 35 48 44 39 41 29 38 46 40 14 14 22 24 26 28 30 34 20 20 18 19 21 23 24 26 28 28 29 31 33 35 36 36 36 37 37
48 29 23 33 42 45 47 50 47 47 40 41 43 33 46 14 29 18 17 26 29 31 32 32 38 20 20 22 24 27 29 30 30 29 29 30 32 34 34 35 35 37 37 35
51 47 18 20 43 38 41 43 37 44 29 18 23 21 27 34 31 29 22 23 27 32 32 38 36 24 26 25 25 28 31 30 31 30 31 31 32 33 33 34 36 37 36 34
Wind_Direction
206 203 198 128 191 282 312 355 15 305 291 326 324 277 297 348 0 9 23 39 21 12 1 12 8 355 345 294 298 355 358 336 340 339 342 335 321 313 335 341 344 351 359 7
214 210 194 185 252 215 258 258 271 241 278 299 302 306 303 359 327 0 346 349 6 351 10 8 4 351 349 297 254 316 306 312 319 322 318 295 288 294 309 314 317 327 336 354
226 218 241 209 213 265 269 234 267 286 263 287 300 308 308 314 333 328 337 350 358 348 7 11 359 355 339 326 261 331 316 291 322 310 326 297 286 272 285 304 315 324 333 322
222 208 207 253 220 243 248 259 250 242 278 277 295 312 288 278 317 283 340 1 341 357 11 4 359 338 345 352 346 23 358 329 326 289 303 323 300 272 275 295 305 321 317 319
222 216 216 225 243 255 237 224 282 277 275 282 278 288 290 195 288 245 346 353 344 358 14 21 8 338 41 34 38 38 44 34 11 297 325 338 309 272 285 303 295 287 249 305
226 222 231 236 230 238 242 242 253 264 289 279 268 255 277 284 87 359 35 94 341 2 26 48 48 15 7 18 30 41 37 34 25 27 30 26 26 17 350 330 6 19 3 317
228 223 214 234 234 244 239 244 255 271 271 276 272 283 293 294 159 53 349 358 334 336 28 66 30 10 8 8 10 21 21 26 28 20 26 24 16 16 26 16 2 343 316 315
234 235 217 233 226 232 246 233 241 262 266 268 270 291 303 326 94 142 294 298 295 298 325 329 332 338 323 331 339 353 359 6 13 13 9 8 7 359 355 345 333 329 322 322
226 240 237 262 247 240 228 232 245 249 256 263 286 287 298 300 264 223 287 307 290 285 311 1 332 329 342 329 323 328 329 334 344 351 352 354 347 341 342 339 336 331 325 322
222 228 229 257 261 247 233 216 238 257 266 268 263 285 279 280 253 247 80 307 279 287 281 305 305 307 325 328 327 315 314 313 319 330 333 336 335 331 332 335 332 329 329 330
223 214 218 226 236 235 241 224 214 229 242 262 277 280 295 313 309 296 287 274 292 274 267 284 303 300 306 315 326 322 316 316 311 314 319 324 327 330 331 329 326 323 320 319
227 223 222 224 231 247 235 229 240 238 248 242 254 274 283 283 283 283 259 274 273 283 278 288 303 297 296 301 310 318 318 310 309 311 316 321 323 325 322 321 320 316 316 317
218 224 219 219 230 236 244 242 226 242 255 241 246 269 267 278 283 254 305 325 285 285 287 286 293 297 294 296 299 305 310 315 313 313 313 314 319 321 318 316 313 312 312 316
217 214 224 222 226 230 257 276 235 231 238 253 244 256 277 299 303 295 313 314 307 299 284 284 289 298 302 300 301 301 301 299 304 307 306 311 316 319 315 311 313 312 312 315
223 223 211 219 222 218 236 244 254 243 217 227 229 247 282 292 290 292 288 289 294 294 277 272 286 291 307 309 310 320 310 299 298 300 305 306 311 317 316 311 311 311 315 314
227 225 221 218 225 222 227 228 235 255 259 233 216 217 222 283 271 270 273 275 288 282 269 267 284 289 299 312 305 309 314 304 304 306 305 307 309 316 311 310 313 314 315 315
236 230 226 229 236 233 234 228 238 237 230 253 251 231 222 252 259 266 276 276 279 273 275 269 282 290 297 305 303 305 309 305 307 307 308 308 309 310 309 312 313 314 315 314
203 201 221 239 235 236 231 236 246 248 246 243 236 241 243 239 263 268 262 264 270 267 265 265 275 285 292 299 303 307 309 309 307 308 308 308 308 308 310 311 313 314 312 313
207 210 228 239 238 245 238 237 237 241 246 253 239 228 234 225 253 262 276 262 258 247 253 263 273 282 287 291 297 302 309 311 312 311 308 308 309 310 311 309 312 311 312 315
234 226 233 228 220 232 246 251 239 237 245 239 245 230 225 231 240 263 275 263 243 249 251 259 270 278 283 288 293 299 305 310 309 306 308 308 308 310 309 310 311 310 310 311
233 225 227 230 230 222 203 211 223 237 253 256 250 237 225 236 250 254 252 246 241 256 260 264 279 279 277 290 297 298 302 308 307 305 307 306 310 309 308 308 307 306 308 309
206 220 225 229 226 232 226 216 219 221 208 221 221 229 223 233 243 250 251 242 232 249 261 268 273 268 281 290 294 298 302 305 307 308 307 309 309 307 306 306 307 309 309 309
250 221 223 212 215 204 216 230 211 212 210 220 209 225 210 242 244 197 209 249 245 257 259 263 270 262 280 288 303 299 303 306 308 307 307 307 306 306 306 307 308 308 308 308
236 234 236 231 212 216 213 226 232 226 207 216 222 218 226 231 251 237 238 245 249 254 253 261 268 255 272 288 302 306 303 304 310 310 307 305 305 307 308 307 306 308 309 310
231 258 219 207 210 224 217 216 233 234 257 224 214 229 214 176 239 276 255 247 250 253 256 261 270 245 269 288 295 300 300 301 305 307 302 303 305 305 305 305 307 309 309 310
216 241 256 212 201 224 240 216 227 234 244 222 212 222 242 261 271 269 260 246 246 251 262 267 250 242 258 277 293 297 301 299 306 299 300 303 303 303 306 306 309 308 309 309